www.pogodaiklimat.ru
ПОГОДА в Кропоткине
Время
(UTC), дата
00 6.07
03 6.07
06 6.07
09 6.07
12 6.07
15 6.07
18 6.07
21 6.07
00 7.07
03 7.07
06 7.07
09 7.07
12 7.07
15 7.07
18 7.07
21 7.07
00 8.07
03 8.07
06 8.07
09 8.07
12 8.07
15 8.07
18 8.07
21 8.07
00 9.07
03 9.07
06 9.07
09 9.07
12 9.07
15 9.07
18 9.07
21 9.07
00 10.07
03 10.07
06 10.07
09 10.07
12 10.07
15 10.07
18 10.07
21 10.07
00 11.07
03 11.07
06 11.07
09 11.07
12 11.07
15 11.07
18 11.07
21 11.07
00 12.07
03 12.07
06 12.07
09 12.07
12 12.07
15 12.07
18 12.07
Ветер
(напр.,м/с)
Видим. Явления Облачность Т
(С)
Тd
(С)
f
(%)
Тe
(С)
Тes
(С)
Комфортность P
(гПа)
Po
(гПа)
Тmin
(С)
Tmax
(С)
R
(мм)
R24
(мм)
S
(см)
ЮВ 2 20 км 5/0
[Ac trans]
+20.9 +15.0 69 +25 +25 комфорт 1006.5 994.3
Ю 1 20 км 4/0
[Ac trans Cc]
+21.2 +15.3 69 +24 +25 комфорт 1006.7 994.5 +19.7
Ю 1 20 км 3/0
[Ac trans]
+28.7 +18.3 53 +33 +44 очень
душно
1006.4 994.5
ЮВ 1 20 км ясно +34.1 +15.8 34 +37 +59 опасность
солнечного
удара
1005.3 993.6
З 2 20 км 1/1 1000 м
[Cu hum]
+38.2 +9.2 17 +36 +48 очень
жарко
1003.2 991.7
штиль 0 20 км ясно +36.3 +4.1 14 +33 +37 жарко 1002.5 990.9 +38.4
З 1 20 км ясно +27.3 +7.8 29 +27 +27 жарко 1002.9 991.0
С 1 20 км ясно +23.7 +7.2 35 +24 +24 комфорт 1002.5 990.5
штиль 0 20 км 3/0
[Ac cuf]
+21.1 +14.4 66 +24 +24 комфорт 1002.4 990.2
ЮВ 1 20 км 8/0
[Ac cuf]
+22.5 +16.0 67 +27 +27 душно 1002.7 990.6 +20.5
ЮВ 1 20 км 1/0
[Ac cast]
+29.7 +16.3 44 +33 +44 душно 1002.4 990.6
ЮВ 2 20 км ясно +36.9 +11.4 22 +36 +55 опасность
солнечного
удара
1001.4 989.9
ЮВ 2 20 км ясно +39.5 +6.7 14 +37 +50 очень
жарко
1000.3 988.8
СВ 1 20 км ясно +38.5 +5.9 14 +36 +39 очень
жарко
999.2 987.7 +39.6
СЗ 2 20 км 8/6 600 м
[Sc Ac lent]
+30.3 +11.4 31 +31 +31 жарко 999.9 988.1
ЮЗ 2 20 км 6/3 600 м
[Sc Ci]
+28.6 +12.1 36 +30 +30 жарко 1000.5 988.6
СЗ 2
{10}
20 км зарница 10/8 600 м
[Cb cap Ac As]
+27.6 +16.3 50 +31 +31 душно 1000.4 988.5
СЗ 1 20 км 10/10 600 м
[Cb cap]
+25.8 +20.0 70 +32 +32 очень
душно
1002.9 991.0 +25.7
З 2 20 км гроза, ливневой дождь 10/8 600 м
[Cb cap Ac cuf]
+24.0 +21.3 85 +30 +31 очень
душно
1004.6 992.5 +24.0
ЮВ 1 20 км {гроза, ливн. дождь} 8/5 600 м
[Cb cap Ac cuf Cc]
+28.3 +22.1 69 +37 +44 очень
душно
1005.3 993.4
ЮЗ 3 20 км в посл. час гроза 10/6 600 м
[Cb cap Ac und]
+27.5 +19.0 60 +33 +34 очень
душно
1006.6 994.7
Ю 1 20 км {гроза, ливн. дождь} 8/4 600 м
[Cb cap Ac cuf Cc]
+23.5 +19.8 80 +29 +30 душно 1007.2 995.1 +30.8 15
ЮЗ 1 20 км {гроза, ливн. дождь} 10/6 600 м
[Cb cap Ac cuf]
+21.4 +17.3 77 +25 +25 комфорт 1009.3 997.1
Ю 1 20 км 8/3 600 м
[Cb cap Ac trans Ci fib]
+19.5 +17.0 85 +23 +23 комфорт 1010.0 997.6
З 2 20 км 8/0
[Ci fib]
+20.9 +18.5 86 +26 +26 душно 1010.6 998.4
СЗ 1 10 км 6/3 600 м
[Cb cap Ac As Ci fib]
+21.5 +19.0 86 +26 +27 душно 1011.7 999.5 +19.5
З 2 20 км 10/8 600 м
[Cb cap Ac cuf]
+23.5 +17.4 69 +27 +28 душно 1013.1 1000.9
З 3 20 км 10/8 600 м
[Cb cap Ac cuf Cc]
+26.1 +15.6 52 +29 +31 жарко 1013.5 1001.4
СЗ 2 20 км 10/8 600 м
[Cu med, cong Ac cuf Ci fib]
+26.8 +15.1 49 +30 +31 душно 1013.5 1001.5
З 2 20 км 3/3 600 м
[Sc diur, vesp Ac cuf]
+25.1 +13.4 48 +27 +29 жарко 1014.0 1001.8 +27.9
штиль 0 20 км 3/3 600 м
[Sc]
+19.9 +14.1 69 +22 +22 комфорт 1015.6 1003.2
штиль 0 20 км ясно +17.8 +14.6 82 +18 +18 1016.5 1004.0
СЗ 1 20 км ясно +15.7 +13.6 87 +16 +16 1017.4 1004.8
СЗ 1 20 км 1/0
[Ac trans]
+18.2 +13.7 75 +20 +21 1018.1 1005.6 +15.5
С 4 20 км 3/1 600 м
[Cu hum Ac trans]
+23.7 +10.8 44 +25 +31 комфорт 1018.4 1006.1
С 4 20 км 1/1 1000 м
[Cu hum]
+26.8 +8.0 30 +27 +38 жарко 1017.9 1005.7
С 3 20 км ясно +29.5 +6.7 24 +28 +39 жарко 1016.4 1004.3
С 3 20 км ясно +29.0 +5.5 23 +28 +30 жарко 1016.1 1004.0 +29.7
СЗ 2 20 км 1/0
[Ac trans]
+22.7 +9.8 44 +24 +24 комфорт 1017.3 1005.0
С 3 20 км ясно +20.6 +8.0 44 +22 +22 комфорт 1017.2 1004.8
С 3 20 км ясно +19.2 +7.7 47 +20 +20 1017.3 1004.8
С 1 20 км ясно +20.0 +8.5 47 +22 +23 комфорт 1017.7 1005.3 +19.2
В 3 20 км ясно +27.2 +9.9 34 +28 +36 жарко 1017.3 1005.2
СВ 3 20 км 3/3 1000 м
[Cu hum]
+30.7 +6.7 22 +29 +40 жарко 1016.0 1004.0
СВ 4 20 км ясно +32.3 +5.5 19 +30 +39 жарко 1014.4 1002.5
С 4 20 км ясно +30.7 +5.5 20 +29 +30 жарко 1013.3 1001.4 +32.5
С 3 20 км ясно +25.6 +5.0 27 +25 +25 комфорт 1013.3 1001.1
С 2 20 км ясно +23.7 +3.9 28 +23 +23 комфорт 1012.5 1000.3
СЗ 2 20 км ясно +20.4 +5.3 37 +22 +22 комфорт 1011.0 998.6
ЮВ 1 20 км ясно +21.5 +7.2 40 +22 +24 комфорт 1010.7 998.4 +18.8
ЮВ 2 20 км 1/0
[Ac trans]
+28.9 +8.0 27 +28 +38 жарко 1009.7 997.7
В 3
{11}
20 км 4/0
[Ac cast]
+35.4 +9.5 21 +34 +45 очень
жарко
1007.8 996.1
С 4 20 км 8/8 600 м
[]
+37.2 +9.1 18 +35 +37 очень
жарко
1005.2 993.6
С 2 20 км 10/8 600 м
[Cb cap Ac cuf Ci fib]
+36.7 +8.0 17 +35 +35 очень
жарко
1003.3 991.7 +37.8
ЮЗ 1 20 км слаб. ливневой дождь 10/8 600 м
[Cb cap Ac cuf Ci fib]
+28.7 +14.1 41 +31 +31 жарко 1004.8 992.9
Местоположение метеостанции Кропоткин (Краснодарский край, Россия): широта 45.43 долгота 40.57 высота над уровнем моря 106 м.
В архиве по умолчанию представлена погода в Кропоткине за последнюю неделю. Архивные данные за месяц целиком и за предыдущие месяцы, начиная с января 2011 года, Вы можете получить, выбрав интересующий диапазон дат из раскрывающегося списка и нажав кнопку "Найти!".
*Определитесь, кто Вы:
Внимание! Время в таблицах - всемирное. Для получения местного времени необходимо прибавить поправку, которая равна 3 ч.
Смотрите также архив погоды в соседних городах и на ближайших метеорологических станциях:
Партнеры нашего сайта:
Виды визы в россию
виды визы в россию
paritetk.ru

     
Пояснения к столбцам:
  • Ветер - указаны скорость ветра в м/с - средняя за 10 мин, порывы в срок и между сроками (в фигурных скобках) и направление, откуда дует ветер: С - северный,
  • СВ - северо-восточный, В - восточный, ЮВ - юго-восточный, Ю - южный, ЮЗ - юго-западный, З - западный, СЗ - северо-западный.
  • Видимость - горизонтальная дальность видимости в метрах или километрах. При видимости от 1 до 10 км при отсутствии осадков обычно наблюдается дымка, при ухудшении видимости до 1 км и менее - туман. В сухую погоду видимость может ухудшаться дымом, пылью или мглою.
  • Явления - указаны атмосферные явления, наблюдавшиеся в срок или в последний час перед сроком; фигурными скобками обозначены явления, наблюдавшиеся между сроками (за 1-3 часа до срока); квадратными скобками обозначены град или гололедные отложения с указанием их диаметра в мм.
  • Облачность - указаны через наклонную черту общая и нижняя облачность в баллах и высота нижней границы облаков в метрах; квадратными скобками обозначены формы облаков: Ci - перистые, Cs - перисто-слоистые, Cc - перисто-кучевые, Ac - высококучевые, As - высокослоистые, Sc - слоисто-кучевые, Ns - слоисто-дождевые, Cu - кучевые, Cb - кучево-дождевые. Подробнее классификацию облаков см. в Атласе облаков (PDF).
  • T - Температура воздуха - температура, измеренная на высоте 2 м над землей.
  • Td - Температура точки росы - температура, при понижении до которой содержащийся в воздухе водяной пар достигнет насыщения.
  • f - Относительная влажность воздуха - влажноcть воздуха, измеренная на высоте 2 м над землей.
  • Te - Эффективная температура - температура, которую ощущает одетый по сезону человек в тени. Характеристика душности погоды. При расчете учитывается влияние влажности воздуха и скорости ветра на теплоощущения человека.
  • Tes - Эффективная температура на солнце - температура, которую ощущает человек, с поправкой на солнечный нагрев. Характеристика знойности погоды. Зависит от высоты солнца над горизонтом, облачности и скорости ветра. Ночью, в пасмурную погоду, а также при ветре 12 м/с и более поправка равна нулю.
  • P - Атмосферное давление - приведенное к уровню моря атмосферное давление.
  • Po - Атмосферное давление - измеренное на уровне метеостанции атмосферное давление.
  • Tmin - Минимальная температура - минимум температуры воздуха на высоте 2 м над землей.
  • Tmax - Максимальная температура - максимум температуры воздуха на высоте 2 м над землей.
  • R - Количество осадков - Количество выпавших осадков за период времени, мм. При наведении курсора мыши на число - период времени, за который выпало указанное количество осадков.
  • R24 - Количество осадков - Количество выпавших осадков за 24 часа, мм.
  • S - Снежный покров - Высота снежного покрова, см. При наведении курсора мыши на число - состояние снежного покрова и степень покрытия местности в баллах.